Wisconsin Rapids, WI

7:13 AM CDT on July 23, 2017 (GMT -0500)
Alexander Field South Wood County

Weather History for KISW - October, 2013

Change the Weather History Date:

Tuesday, October 1, 2013

  Actual Average Record
Temperature  
Mean Temperature 64 °F -  
Max Temperature 77 °F 65 °F 91 °F (1976)
Min Temperature 50 °F 40 °F 24 °F (2003)
Degree Days  
Heating Degree Days 2    
Growing Degree Days 14 (Base 50)    
Moisture  
Dew Point 51 °F    
Average Humidity 61    
Maximum Humidity 87    
Minimum Humidity 45    
Precipitation  
Precipitation 0.00 in - - ()
Sea Level Pressure  
Sea Level Pressure 29.84 in    
Wind  
Wind Speed 9 mph (SW)    
Max Wind Speed 17 mph    
Max Gust Speed 21 mph    
Visibility 10 miles    
Events      
Averages and records for this station are not official NWS values.
T = Trace of Precipitation, MM = Missing Value Source: NWS Daily Summary

Daily Weather History Graph

Daily Weather History Graph

Search for Another Location

Airport or City:

Trip Planner

Search our weather history database for the weather conditions in past years. The results will help you decide how hot, cold, wet, or windy it might be!

Date:

Astronomy

Oct. 01, 2013 Rise Set
Actual Time 6:57 AM CDT 6:39 PM CDT
Civil Twilight 6:28 AM CDT 7:08 PM CDT
Nautical Twilight 5:54 AM CDT 7:42 PM CDT
Astronomical Twilight 5:20 AM CDT 8:16 PM CDT
Moon 3:25 AM CDT (10/1) 4:48 PM CDT (10/1)
Length of Visible Light 12h 39m
Length of Day
11h 42m
Waning Crescent, 12% of the Moon is Illuminated
Oct 1
Waning Crescent
Oct 4
New
Oct 11
First Quarter
Oct 18
Full
Oct 26
Last Quarter

Hourly Weather History & Observations

Time (CDT) Temp. Dew Point Humidity Pressure Visibility Wind Dir Wind Speed Gust Speed Precip Events Conditions
12:54 AM 60.1 °F 46.9 °F 62% 29.79 in 10.0 mi South 6.9 mph - N/A   Clear
1:54 AM 59.0 °F 48.9 °F 69% 29.79 in 10.0 mi South 5.8 mph - N/A   Clear
2:54 AM 60.1 °F 51.1 °F 72% 29.77 in 10.0 mi South 6.9 mph - N/A   Clear
3:54 AM 61.0 °F 54.0 °F 78% 29.76 in 10.0 mi SSW 11.5 mph - N/A   Clear
4:54 AM 62.1 °F 55.9 °F 80% 29.76 in 10.0 mi SSW 13.8 mph - N/A   Clear
5:54 AM 62.1 °F 55.9 °F 80% 29.77 in 10.0 mi South 11.5 mph - N/A   Clear
6:54 AM 61.0 °F 57.0 °F 87% 29.76 in 10.0 mi South 12.7 mph - N/A   Clear
7:54 AM 62.1 °F 57.0 °F 84% 29.77 in 10.0 mi SSW 10.4 mph - N/A   Clear
8:54 AM 64.9 °F 57.0 °F 75% 29.78 in 10.0 mi SSW 12.7 mph - N/A   Clear
9:54 AM 70.0 °F 55.9 °F 61% 29.79 in 10.0 mi SW 13.8 mph - N/A   Clear
10:54 AM 72.0 °F 55.0 °F 55% 29.81 in 10.0 mi WSW 17.3 mph 20.7 mph N/A   Clear
11:54 AM 73.0 °F 55.0 °F 53% 29.81 in 10.0 mi WSW 11.5 mph 17.3 mph N/A   Clear
12:54 PM 73.0 °F 55.0 °F 53% 29.83 in 10.0 mi West 12.7 mph 20.7 mph N/A   Clear
1:54 PM 75.9 °F 55.0 °F 48% 29.82 in 10.0 mi WSW 12.7 mph 17.3 mph N/A   Clear
2:54 PM 75.9 °F 55.0 °F 48% 29.83 in 10.0 mi West 12.7 mph 19.6 mph N/A   Clear
3:54 PM 77.0 °F 54.0 °F 45% 29.83 in 10.0 mi WSW 11.5 mph 17.3 mph N/A   Clear
4:54 PM 75.9 °F 53.1 °F 45% 29.85 in 10.0 mi WSW 11.5 mph - N/A   Clear
5:54 PM 73.9 °F 51.1 °F 45% 29.88 in 10.0 mi West 8.1 mph - N/A   Clear
6:54 PM 68.0 °F 48.9 °F 50% 29.89 in 10.0 mi West 4.6 mph - N/A   Clear
7:54 PM 64.9 °F 45.0 °F 48% 29.92 in 10.0 mi West 4.6 mph - N/A   Clear
8:54 PM 62.1 °F 42.1 °F 48% 29.93 in 10.0 mi West 5.8 mph - N/A   Clear
9:54 PM 57.9 °F 39.9 °F 51% 29.95 in 10.0 mi West 5.8 mph - N/A   Clear
10:54 PM 50.0 °F 41.0 °F 71% 29.98 in 10.0 mi Calm Calm - N/A   Clear
11:54 PM 51.1 °F 39.9 °F 66% 29.99 in 10.0 mi West 3.5 mph - N/A   Clear